Weather History for KUNV - August, 2013

Change the Weather History Date:

Friday, August 2, 2013

  Actual Average Record
Temperature  
Mean Temperature 67 °F -  
Max Temperature 77 °F 81 °F 96 °F (1975)
Min Temperature 57 °F 60 °F 48 °F (1976)
Cooling Degree Days 2    
Growing Degree Days 17 (Base 50)    
Moisture  
Dew Point 56 °F    
Average Humidity 73    
Maximum Humidity 96    
Minimum Humidity 41    
Precipitation  
Precipitation 0.00 in - - ()
Sea Level Pressure  
Sea Level Pressure 29.95 in    
Wind  
Wind Speed 4 mph (WSW)    
Max Wind Speed 17 mph    
Max Gust Speed 20 mph    
Visibility 10 miles    
Events      
Averages and records for this station are not official NWS values.
T = Trace of Precipitation, MM = Missing Value Source: NWS Daily Summary

Daily Weather History Graph

Daily Weather History Graph

Search for Another Location

Airport or City:

Trip Planner

Search our weather history database for the weather conditions in past years. The results will help you decide how hot, cold, wet, or windy it might be!

Date:

Astronomy

Aug. 02, 2013 Rise Set
Actual Time 6:08 AM EDT 8:25 PM EDT
Civil Twilight 5:38 AM EDT 8:56 PM EDT
Nautical Twilight 5:00 AM EDT 9:34 PM EDT
Astronomical Twilight 4:18 AM EDT 10:15 PM EDT
Moon 2:28 AM EDT (8/2) 5:22 PM EDT (8/2)
Length of Visible Light 15h 18m
Length of Day
14h 16m
Waning Crescent, 16% of the Moon is Illuminated
Aug 2
Waning Crescent
Aug 6
New
Aug 14
First Quarter
Aug 20
Full
Aug 28
Last Quarter

Hourly Weather History & Observations

Time (EDT) Temp. Dew Point Humidity Pressure Visibility Wind Dir Wind Speed Gust Speed Precip Events Conditions
12:15 AM 66.0 °F 57.7 °F 75% 29.92 in 10.0 mi WSW 5.8 mph - N/A   Scattered Clouds
12:35 AM 64.8 °F 56.7 °F 75% 29.92 in 10.0 mi WSW 5.8 mph - N/A   Scattered Clouds
12:55 AM 65.1 °F 57.2 °F 75% 29.92 in 10.0 mi West 4.6 mph - N/A   Scattered Clouds
1:15 AM 61.0 °F 57.2 °F 87% 29.92 in 10.0 mi Calm Calm - N/A   Scattered Clouds
1:35 AM 62.1 °F 59.0 °F 90% 29.92 in 10.0 mi Calm Calm - N/A   Scattered Clouds
1:55 AM 61.2 °F 58.6 °F 91% 29.92 in 10.0 mi Calm Calm - N/A   Scattered Clouds
2:15 AM 61.2 °F 57.9 °F 89% 29.92 in 10.0 mi Calm Calm - N/A   Scattered Clouds
2:35 AM 60.1 °F 58.3 °F 94% 29.91 in 10.0 mi Calm Calm - N/A   Scattered Clouds
2:55 AM 61.0 °F 59.0 °F 93% 29.91 in 10.0 mi Calm Calm - N/A   Mostly Cloudy
3:15 AM 60.8 °F 58.8 °F 93% 29.91 in 10.0 mi Calm Calm - N/A   Scattered Clouds
3:35 AM 62.1 °F 58.5 °F 88% 29.92 in 10.0 mi WSW 4.6 mph - N/A   Mostly Cloudy
3:55 AM 59.7 °F 57.2 °F 91% 29.92 in 10.0 mi WSW 3.5 mph - N/A   Scattered Clouds
4:15 AM 59.0 °F 56.7 °F 92% 29.92 in 10.0 mi South 3.5 mph - N/A   Scattered Clouds
4:35 AM 58.1 °F 56.8 °F 96% 29.93 in 7.0 mi Calm Calm - N/A   Scattered Clouds
4:55 AM 59.5 °F 57.0 °F 91% 29.93 in 10.0 mi WSW 6.9 mph - N/A   Clear
5:15 AM 59.4 °F 56.7 °F 91% 29.92 in 10.0 mi WSW 3.5 mph - N/A   Scattered Clouds
5:35 AM 58.1 °F 56.5 °F 94% 29.93 in 7.0 mi Calm Calm - N/A   Scattered Clouds
5:53 AM 57.2 °F 55.4 °F 94% 29.92 in 10.0 mi Calm Calm - N/A   Clear
6:53 AM 59.0 °F 57.2 °F 94% 29.96 in 10.0 mi Calm Calm - N/A   Clear
7:53 AM 64.4 °F 60.8 °F 88% 29.98 in 10.0 mi Calm Calm - N/A   Clear
8:53 AM 68.0 °F 60.8 °F 78% 29.99 in 10.0 mi Calm Calm - N/A   Clear
9:53 AM 69.8 °F 60.8 °F 73% 29.97 in 10.0 mi Calm Calm - N/A   Partly Cloudy
10:53 AM 73.4 °F 60.8 °F 65% 29.96 in 10.0 mi WSW 11.5 mph - N/A   Mostly Cloudy
11:53 AM 75.2 °F 59.0 °F 57% 29.96 in 10.0 mi WSW 11.5 mph - N/A   Scattered Clouds
12:53 PM 77.0 °F 55.4 °F 47% 29.96 in 10.0 mi WSW 11.5 mph - N/A   Scattered Clouds
1:53 PM 77.0 °F 51.8 °F 41% 29.95 in 10.0 mi WSW 17.3 mph - N/A   Scattered Clouds
2:53 PM 77.0 °F 53.6 °F 44% 29.95 in 10.0 mi West 12.7 mph - N/A   Partly Cloudy
3:53 PM 75.2 °F 53.6 °F 47% 29.97 in 10.0 mi West 13.8 mph - N/A   Clear
4:53 PM 75.2 °F 53.6 °F 47% 29.95 in 10.0 mi West 12.7 mph - N/A   Scattered Clouds
5:53 PM 75.2 °F 51.8 °F 44% 29.95 in 10.0 mi West 12.7 mph 19.6 mph N/A   Clear
6:53 PM 73.4 °F 51.8 °F 47% 29.95 in 10.0 mi West 9.2 mph - N/A   Clear
7:53 PM 69.8 °F 53.6 °F 56% 29.96 in 10.0 mi West 3.5 mph - N/A   Clear
8:53 PM 66.2 °F 53.6 °F 64% 29.97 in 10.0 mi WSW 6.9 mph - N/A   Scattered Clouds
9:15 PM 66.0 °F 53.4 °F 64% 29.98 in 10.0 mi SW 6.9 mph - N/A   Mostly Cloudy
9:35 PM 67.1 °F 53.4 °F 61% 29.98 in 10.0 mi SW 4.6 mph - N/A   Overcast
9:55 PM 66.9 °F 53.6 °F 62% 29.97 in 10.0 mi SSW 3.5 mph - N/A   Overcast
10:15 PM 66.2 °F 53.2 °F 63% 29.97 in 10.0 mi SSW 4.6 mph - N/A   Mostly Cloudy
10:35 PM 66.7 °F 53.6 °F 63% 29.97 in 10.0 mi WSW 3.5 mph - N/A   Scattered Clouds
10:55 PM 64.0 °F 55.0 °F 73% 29.96 in 10.0 mi SW 6.9 mph - N/A   Scattered Clouds
11:15 PM 66.0 °F 53.8 °F 65% 29.96 in 10.0 mi WSW 4.6 mph - N/A   Scattered Clouds
11:35 PM 65.8 °F 53.6 °F 65% 29.97 in 10.0 mi West 5.8 mph - N/A   Scattered Clouds
11:55 PM 64.6 °F 54.9 °F 71% 29.97 in 10.0 mi SW 6.9 mph - N/A   Mostly Cloudy